Regional Weather Roundup
Issued by NWS Albany, NY

Home | Current Version | Previous Version | Text Only | Print | Product List | Glossary On
Versions: 1 2 3 4 5 6 7 8 9 10 11 12 13 14 15 16 17 18 19 20 21 22 23 24 25 26 27
000
ASUS41 KALY 241910
RWRALY

NEW YORK STATE HOURLY WEATHER ROUNDUP
NATIONAL WEATHER SERVICE ALBANY NY
300 PM EDT WED MAY 24 2017

NOTE: "FAIR" INDICATES FEW OR NO CLOUDS BELOW 12,000 FEET WITH NO
SIGNIFICANT WEATHER AND/OR NO OBSTRUCTIONS TO VISIBILITY.

NYZ032-033-038>043-046>054-057>066-NYZ062>081-082-084-242000-
EAST


CITY           SKY/WX    TMP DP  RH WIND       PRES   REMARKS
ALBANY         PTSUNNY   74  50  42 VRB3      29.74F
GLENS FALLS    NOT AVBL
POUGHKEEPSIE   MOSUNNY   72  48  42 VRB5      29.73S
NEWBURGH       PTSUNNY   72  52  49 E12       29.76S
MONTGOMERY     CLOUDY    71  50  47 VRB3      29.74S
WHITE PLAINS   PTSUNNY   66  52  60 SE9       29.75S
ISLIP          CLOUDY    68  49  50 E16G22    29.74S
NEW YORK CITY  PTSUNNY   67  47  48 NE13      29.75S
CENTRAL PARK   CLOUDY    67  47  48 E10G18    29.78S
$$

NYZ005>009-017-018-044>046-055-056-242000-
CENTRAL


CITY           SKY/WX    TMP DP  RH WIND       PRES   REMARKS
FULTON         CLOUDY    77  49  37 E8        29.68F
SYRACUSE       CLOUDY    75  49  39 E6        29.67F
ROME           MOSUNNY   75  52  44 E9        29.71F
ELMIRA         MOSUNNY   73  39  29 SE14      29.68S
BINGHAMTON     CLOUDY    68  46  45 SE14G21   29.72F
MONTICELLO     PTSUNNY   70  48  46 SE15G21   29.78R
$$

NYZ026>034-041>043-087-242000-
NORTH


CITY           SKY/WX    TMP DP  RH WIND       PRES   REMARKS
WATERTOWN      PTSUNNY   75  54  47 N12       29.68F
FORT DRUM      NOT AVBL
OGDENSBURG     FAIR      75  52  43 N3        29.73S
MASSENA        SUNNY     73  53  49 VRB6      29.75S
SARANAC LAKE   PTSUNNY   70  47  43 E8        29.74S
PLATTSBURGH    MOSUNNY   72  51  47 E5        29.74S
$$

NYZ001>004-010>016-019>021-085-242000-
WEST


CITY           SKY/WX    TMP DP  RH WIND       PRES   REMARKS
NIAGARA FALLS  CLOUDY    76  43  30 E9G16     29.61F
BUFFALO        CLOUDY    75  42  30 S8        29.62F
DUNKIRK        PTSUNNY   72  52  49 SE6       29.62F
JAMESTOWN      PTSUNNY   68  48  49 SE10      29.65R
WELLSVILLE     CLOUDY    69  43  38 SE16G25   29.70S
ROCHESTER      CLOUDY    75  48  38 E12       29.67S
PENN YAN       CLOUDY    74  44  34 SE12      29.69S
$$

             KEY
       WCI = WIND CHILL INDEX
       VSB = VISIBILITY
       HX  = HEAT INDEX
$$




USA.gov is the U.S. government's official web portal to all federal, state and local government web resources and services.